Regional Weather Roundup
Issued by NWS

Home | Current Version | Previous Version | Graphics & Text | Print | Product List | Glossary On
Versions: 1 2 3 4 5 6 7 8 9 10 11 12 13 14 15 16 17 18 19 20 21 22 23 24 25 26 27 28 29 30 31 32 33 34 35 36 37 38 39 40 41 42 43 44 45 46 47 48 49 50
000
ASUS43 KMKX 141600
RWRWI

WISCONSIN REGIONAL WEATHER ROUNDUP
NATIONAL WEATHER SERVICE MILWAUKEE/SULLIVAN WI
1000 AM CST SUN FEB 14 2016

NOTE: "FAIR" INDICATES FEW OR NO CLOUDS BELOW 12,000 FEET WITH NO
SIGNIFICANT WEATHER AND/OR OBSTRUCTIONS TO VISIBILITY.

WIZ001-002-006>008-014>016-023>028-141700-
NORTHWEST WISCONSIN

CITY           SKY/WX    TMP DP  RH WIND       PRES   REMARKS
SUPERIOR ARPT  CLOUDY     8  -7  49 CALM      30.12F
ASHLAND        CLOUDY     0 -11  59 CALM      30.13F
HAYWARD        CLOUDY     7  -8  50 SE12      30.08F WCI  -8
SIREN          LGT SNOW   9   2  72 SE9       30.07F WCI  -4
CUMBERLAND     LGT SNOW   9  -2  61 SE9       30.06F WCI  -5
RICE LAKE      FLURRIES   9  -2  62 SE12      30.10F WCI  -6
CHETEK         LGT SNOW   8  -3  60 SE9       30.10S WCI  -5
LADYSMITH      CLOUDY     6  -7  54 SE7       30.14S WCI  -5
EAU CLAIRE     NOT AVBL
MENOMONIE      LGT SNOW  11   0  60 E9        30.11F WCI  -2
NEW RICHMOND   FLURRIES  11   1  63 SE10      30.06F WCI  -3
OSCEOLA        CLOUDY    11   2  65 SE9       30.09F WCI  -1
$$

WIZ003>005-009-010-017-018-141700-
NORTH CENTRAL WISCONSIN

CITY           SKY/WX    TMP DP  RH WIND       PRES   REMARKS
MANITOWISH WTR CLOUDY     2 -11  52 S12G17    30.09F WCI -14
ARBOR VITAE    CLOUDY     4  -9  55 SE8       30.10F WCI  -9
WOODRUFF       CLOUDY     4  -9  55 SE8       30.10F WCI  -9
RHINELANDER    CLOUDY     4  -9  55 SE6       30.12F WCI  -7
EAGLE RIVER    CLOUDY     4 -10  52 S7        30.12F WCI  -8
LAND O LAKES   CLOUDY     6  -9  50 S7        30.12F WCI  -6
PHILLIPS       CLOUDY     4 -10  52 S7        30.10S WCI  -9
TOMAHAWK       CLOUDY     4  -8  57 SE3       30.14F
MEDFORD        CLOUDY     4  -9  53 SE12G18   30.12S WCI -12
MERRILL        NOT AVBL
$$

WIZ029-030-035-036-043>047-141700-
CENTRAL WISCONSIN

CITY           SKY/WX    TMP DP  RH WIND       PRES   REMARKS
WAUSAU         CLOUDY     8  -6  52 S12       30.17S WCI  -7
MOSINEE        SUNNY      9  -6  52 SE12      30.18S WCI  -6
MARSHFIELD     CLOUDY     9  -6  50 SE9       30.14S WCI  -4
STEVENS POINT  CLOUDY     6  -8  53 S7        30.20S WCI  -6
WAUPACA        CLOUDY     4  -6  62 CALM      30.23F
WAUTOMA        NOT AVBL
WISC RAPIDS    CLOUDY    11  -6  46 S9        30.20S WCI  -2
CAMP DOUGLAS   LGT SNOW  10   0  61 SE8       30.18R WCI  -1
$$

WIZ011>013-019>022-031-037>040-048>050-141700-
NORTHEAST WISCONSIN

CITY           SKY/WX    TMP DP  RH WIND       PRES   REMARKS
ANTIGO         CLOUDY     2  -7  65 SE12      30.16F WCI -15
SHAWANO        MOSUNNY   -1  -8  72 CALM      30.25F
OCONTO         CLOUDY     4  -7  60 CALM      30.27F
STURGEON BAY   CLOUDY    10   0  61 CALM      30.28F
GREEN BAY      CLOUDY    12   1  61 CALM      30.25F
MANITOWOC      NOT AVBL
APPLETON       PTSUNNY   14   1  57 SE9       30.21F WCI   2
CLINTONVILLE   CLOUDY     3  -6  66 CALM      30.24F
OSHKOSH        CLOUDY    12   1  61 S8        30.23F WCI   0
$$

WIZ032>034-041-042-053>061-141700-
SOUTHWEST WISCONSIN

CITY           SKY/WX    TMP DP  RH WIND       PRES   REMARKS
LA CROSSE      LGT SNOW  14   5  67 SE13      30.14F WCI   0
SPARTA         LGT SNOW  13   5  70 SE7       30.16F WCI   3
VIROQUA        CLOUDY    11   6  79 SE16      30.10S WCI  -5
BOSCOBEL       LGT SNOW  16   9  74 SE9       30.18S VSB 3/4 WCI   4
PRAIRIE DU CHI LGT SNOW  16  10  77 SE9G16    30.15F WCI   4
PLATTEVILLE    CLOUDY    15  11  83 SE15G23   30.15S VSB 1/2 WCI  -1
$$

WIZ056-057-062-063-064-067-068-141700-
SOUTH CENTRAL WISCONSIN

CITY           SKY/WX    TMP DP  RH WIND       PRES   REMARKS
REEDSBURG      CLOUDY    12   1  62 SE8       30.19R WCI   1
BARABOO/DELLS  CLOUDY    12   0  59 SE10      30.19R WCI  -1
LONE ROCK      NOT AVBL
MINERAL POINT  LGT SNOW  18   9  68 SE16G23   30.13F WCI   3
MADISON        FLURRIES  15   1  53 SE20      30.21R WCI  -2
MIDDLETON      CLOUDY    17   4  56 S16       30.20S WCI   1
WATERTOWN      CLOUDY    15   3  58 SE14      30.23S WCI   1
MONROE         FLURRIES  16   7  67 SE14G23   30.16F WCI   1
JANESVILLE     CLOUDY    18   3  53 SE15      30.21F WCI   3
$$

WIZ051-052-058>065-066-070>072-141700-
SOUTHEAST WISCONSIN

CITY           SKY/WX    TMP DP  RH WIND       PRES   REMARKS
MILWAUKEE      FLURRIES  19  11  70 S16G23    30.27F WCI   4
WAUKESHA       LGT SNOW  16   9  73 SE14G21   30.25F WCI   1
MILWAUKEE/TIMM FLURRIES  18   9  68 S10       30.26F WCI   6
RACINE         CLOUDY    19   9  65 S20G28    30.29S WCI   3
BURLINGTON     CLOUDY    15   4  62 SE18G24   30.25S WCI  -1
KENOSHA        CLOUDY    18   8  65 SE17G25   30.27R WCI   3
FOND DU LAC    MIX PCPN  15   4  61 S15       30.23F WCI   0
SHEBOYGAN      CLOUDY    14   7  73 S6        30.24F WCI   5
WEST BEND      FLURRIES  16   5  62 CALM      30.23F
JUNEAU         CLOUDY    14   2  58 SE15      30.23F WCI  -1
$$

LSZ147-162-141700-
LAKE SUPERIOR

STATION/POSITION TIME  TEMP    WIND        PRES    WAVE
                       AIR SEA DIR/SP/G            HT/PER
                 (UTC) (F)     (DEG/KT/KT) (MB)    (FT/S)
DEVILS ISLAND    1500    8     160/ 10/ 13 1022.6F
SAXON HARBOR     1500                      1020.3F
$$

LMZ867-665-643>646-141700-
LAKE MICHIGAN

STATION/POSITION TIME  TEMP    WIND        PRES    WAVE
                       AIR SEA DIR/SP/G            HT/PER
                 (UTC) (F)     (DEG/KT/KT) (MB)    (FT/S)
CHAMBERS ISLAND  1500   11     210/  2/  4 1026.1F
SISTER BAY       1504   18        CALM       N/A
ALGOMA LAKESHORE 1426           CALM  /  1   N/A
KEWAUNEE LAKESHO 1500    4     300/  2/  5 1025.1F
SHEBOYGAN LAKESH 1500   13     220/  5/  7 1027.3F
PORT WASHINGTON  1500   19     180/ 10/ 15 1026.1F
MILWAUKEE LAKESH 1510   20     150/ 22/ 25   N/A
KENOSHA   LAKESH 1500   18     140/ 24/ 30 1024.7F
$$

TC  - TEMPERATURE IN CELSIUS
VSB - VISIBILITY IN STATUTE MILES
WCI - WIND CHILL INDEX
HX  - HEAT INDEX




USA.gov is the U.S. government's official web portal to all federal, state and local government web resources and services.